Regional Weather Roundup
Issued by NWS

Home | Current Version | Previous Version | Text Only | Print | Product List | Glossary On
Versions: 1 2 3 4 5 6 7 8 9 10 11 12 13 14 15 16 17 18 19 20 21 22 23 24 25 26 27 28 29 30 31 32 33 34 35 36 37 38 39 40 41 42 43 44 45 46 47 48 49 50
000
ASCA44 KEWX 190520
RWRMX

LATIN AMERICA AND CARIBBEAN REGIONAL WEATHER ROUNDUP
NATIONAL WEATHER SERVICE AUSTIN/SAN ANTONIO TX
1100 PM CST WED JAN 18 2017

NOTE: "FAIR" INDICATED FEW OR NO CLOUDS BELOW 12,000 FEET WITH NO
SIGNIFICANT WEATHER AND/OR OBSTRUCTIONS TO VISIBILITY.

BAJA CALIFORNIA

CITY           SKY/WX    TMP DP  RH WIND       PRES   REMARKS
LA PAZ         CLEAR     55  46  71 S5        30.13R
MEXICALI       CLOUDY    57  39  51 SW5       30.08R
S.J. DEL CABO  PTCLDY    63  52  67 W5        30.11R
TIJUANA        CLOUDY    54  46  76 CALM      30.18S

NORTHWESTERN MEXICO

CITY           SKY/WX    TMP DP  RH WIND       PRES   REMARKS
CULIACAN       PTCLDY    57  54  88 CALM      30.05R
HERMOSILLO     CLEAR     57  43  58 CALM      30.10R
LOS MOCHIS     CLEAR     55  50  82 W5        30.08R

NORTHEASTERN MEXICO

CITY           SKY/WX    TMP DP  RH WIND       PRES   REMARKS
MONCLOVA         N/A    N/A N/A N/A MISG        N/A
MONTERREY      CLOUDY    59  54  82 CALM      30.01F
REYNOSA          N/A    N/A N/A N/A MISG        N/A
CD. VICTORIA     N/A    N/A N/A N/A MISG        N/A

WESTERN MEXICO

CITY           SKY/WX    TMP DP  RH WIND       PRES   REMARKS
AGUASCALIENTES MOCLDY    57  36  44 SE5       30.27S
COLIMA           N/A    N/A N/A N/A MISG        N/A
DEL BAJIO      MOCLDY    57  37  47 CALM      30.31R
GUADALAJARA    CLOUDY    63  43  48 CALM      30.22R
MAZATLAN       PTCLDY    63  59  88 NW3       30.03F
P. VALLARTA    CLOUDY    72  68  88 NE2       30.04R
URUAPAN          N/A    N/A N/A N/A MISG        N/A
ZACATECAS      CLOUDY    50  36  57 SW9       30.28S WCI  46

CENTRAL MEXICO

CITY           SKY/WX    TMP DP  RH WIND       PRES   REMARKS
CUERNAVACA       N/A    N/A N/A N/A MISG        N/A
MEXICO CITY    CLEAR     59  39  47 S5        30.31S
MORELIA        CLEAR     54  39  58 W6        30.26R
POZA RICA        N/A    N/A N/A N/A MISG        N/A
QUERETARO      PTCLDY    57  41  54 W10       30.29S
S. LUIS POTOSI CLOUDY    63  27  25 CALM      30.21S
TAMPICO          N/A    N/A N/A N/A MISG        N/A
TOLUCA         CLEAR     45  37  76 CALM      30.40S

SOUTHERN MEXICO

CITY           SKY/WX    TMP DP  RH WIND       PRES   REMARKS
ACAPULCO       CLEAR     75  64  69 CALM      29.93S
B. DE HUATULCO   N/A    N/A N/A N/A MISG        N/A
P. ESCONDIDO     N/A    N/A N/A N/A MISG        N/A
VERACRUZ       PTCLDY    72  70  94 CALM      29.96S

YUCATAN PENINSULA

CITY           SKY/WX    TMP DP  RH WIND       PRES   REMARKS
CAMPECHE         N/A    N/A N/A N/A MISG        N/A
CANCUN         PTCLDY    73  70  88 E6        30.06F
CHETUMAL         N/A    N/A N/A N/A MISG        N/A
CD. DEL CARMEN   N/A    N/A N/A N/A MISG        N/A
COZUMEL        PTCLDY    70  68  94 CALM      30.04S
MERIDA         CLEAR     75  66  73 E9        30.01S
MINATITLAN       N/A    N/A N/A N/A MISG        N/A
TAPACHULA      MOCLDY    77  73  88 CALM      29.94S
TUX. GUTIERREZ CLEAR     73  64  73 S5        29.98S
VILLAHERMOSA   CLEAR     72  68  88 E7        29.94F

CENTRAL AMERICA

CITY           SKY/WX    TMP DP  RH WIND       PRES   REMARKS
MANAGUA        PTCLDY    75  68  78 E5        29.92F

CARIBBEAN

CITY           SKY/WX    TMP DP  RH WIND       PRES   REMARKS
ARUBA          PTCLDY    77  72  83 E10       29.92F
CURACAO        PTCLDY    77  72  83 E13       29.94S
KINGSTON       PTCLDY    77  68  73 N10       30.00S
SAN JUAN       PTCLDY    72  64  78 S3        30.04S
SANTO DOMINGO  PTCLDY    66  64  94 N5        30.03S
ST. CROIX      CLEAR     66  59  77 N5        30.02
ST. MAARTEN    PTCLDY    73  66  78 E6        30.00S
ST. THOMAS     CLEAR     70  59  68 NE5       30.02

$$





USA.gov is the U.S. government's official web portal to all federal, state and local government web resources and services.